SL-14 R/B (20466 NORAD) Tracking and Keplerian Element Data

This shows tracking and keplerian element data for the satellite.

Feedback or suggestion? Click here.




ElementValue
Catalog20466
NameSL-14 R/B
Epoch Orbit86937
Epoch Day34.94496103
Epoch Year2025
RAAN281.7282
Inclination82.502
Eccentricity0.002006
Argument of Perigee169.5173
Mean Anonmoly190.6464
Mean Motion14.83041314
Decay Rate8.53E-06
L11 20466U 90010B 25034.94496103 .00000853 00000+0 10168-3 0 9992
L22 20466 82.5020 281.7282 0020060 169.5173 190.6464 14.83041314869379



Live tracking and technical data element details for SL-14 R/B (NORAD 20466). SL-14 R/B can be tracked NOW for your location showing map with azimuth and elevation plus other details from your city location.







IsCatalogInMostPopularTable: catalog: 20466, numindb: 380
Update: records affected: 1



GetName: 20466 SL-14 R/B

Hit Count: updated at: Thu, 22 May 2025 04:11:55 GMT